TimeEST,TemperatureF,Dew PointF,Humidity,Sea Level PressureIn,VisibilityMPH,Wind Direction,Wind SpeedMPH,Gust SpeedMPH,PrecipitationIn,Events,Conditions,WindDirDegrees,DateUTC
12:53 AM,39.0,33.1,79,30.28,10.0,Calm,Calm,-,N/A,,Clear,0,2012-11-16 05:53:00
1:53 AM,36.0,32.0,86,30.28,10.0,Calm,Calm,-,N/A,,Clear,0,2012-11-16 06:53:00
2:53 AM,36.0,30.9,82,30.28,10.0,Calm,Calm,-,N/A,,Clear,0,2012-11-16 07:53:00
3:53 AM,35.1,30.9,85,30.28,10.0,Calm,Calm,-,N/A,,Clear,0,2012-11-16 08:53:00
4:53 AM,32.0,28.9,88,30.29,8.0,East,3.5,-,N/A,,Clear,80,2012-11-16 09:53:00
5:53 AM,33.1,28.9,85,30.30,10.0,Calm,Calm,-,N/A,,Clear,0,2012-11-16 10:53:00
6:53 AM,30.9,28.9,92,30.31,9.0,Calm,Calm,-,N/A,,Clear,0,2012-11-16 11:53:00
7:53 AM,35.1,30.9,85,30.32,10.0,NNE,5.8,-,N/A,,Clear,20,2012-11-16 12:53:00
8:53 AM,39.0,34.0,82,30.35,10.0,North,8.1,-,N/A,,Clear,10,2012-11-16 13:53:00
9:53 AM,44.1,35.1,71,30.35,10.0,NE,11.5,-,N/A,,Clear,40,2012-11-16 14:53:00
10:53 AM,48.9,34.0,56,30.36,10.0,NE,9.2,-,N/A,,Clear,40,2012-11-16 15:53:00
11:53 AM,53.1,34.0,48,30.34,10.0,NE,6.9,-,N/A,,Partly Cloudy,40,2012-11-16 16:53:00
12:53 PM,55.9,33.1,42,30.31,10.0,North,8.1,-,N/A,,Partly Cloudy,10,2012-11-16 17:53:00
1:53 PM,57.0,32.0,39,30.30,10.0,North,8.1,-,N/A,,Partly Cloudy,360,2012-11-16 18:53:00
2:53 PM,59.0,26.1,28,30.28,10.0,NNE,9.2,-,N/A,,Clear,20,2012-11-16 19:53:00
3:53 PM,57.9,23.0,26,30.29,10.0,NNE,10.4,-,N/A,,Partly Cloudy,20,2012-11-16 20:53:00
4:53 PM,54.0,23.0,30,30.31,10.0,NE,9.2,-,N/A,,Partly Cloudy,40,2012-11-16 21:53:00
5:53 PM,52.0,24.1,34,30.32,10.0,Calm,Calm,-,N/A,,Clear,0,2012-11-16 22:53:00
6:53 PM,50.0,25.0,38,30.33,10.0,NE,4.6,-,N/A,,Clear,40,2012-11-16 23:53:00
7:53 PM,48.0,28.0,46,30.34,10.0,North,5.8,-,N/A,,Clear,10,2012-11-17 00:53:00
8:53 PM,46.9,28.0,48,30.35,10.0,NNE,5.8,-,N/A,,Clear,20,2012-11-17 01:53:00
9:53 PM,46.0,28.0,50,30.36,10.0,North,9.2,-,N/A,,Clear,10,2012-11-17 02:53:00
10:53 PM,44.1,27.0,51,30.36,10.0,NNE,6.9,-,N/A,,Clear,20,2012-11-17 03:53:00
11:53 PM,42.1,28.0,58,30.37,10.0,NE,5.8,-,N/A,,Clear,40,2012-11-17 04:53:00